Meteo Giornale » Osservazioni meteo Gran Bretagna » Tees-Side
ore: 22:50 - Osservazioni Meteo Tees-Side
Lat. 54° 31' N Lon. 1° 25' W Alt. 37 metri s.l.m.
17 °C
Pioggia
Temp. 24 Ore
11 °C
20 °C
Sud/Sud-Ovest
11.1 Km/h
Dew point 13 °C
Umidità 77 %
Visibilità 10 Km
Il sole sorge alle ore 06:13
Il sole tramonta alle ore 19:58
| Data e Ora | Cielo e Fenomeni | T °C | DP °C | Um. % | Pres. hPa | Vis. km | Vento km/h | |
|---|---|---|---|---|---|---|---|---|
| Oggi h: 22:50 | Pioggia | 17 | 13 | 77 | 1016 | 10 | S/SO 11.1 | |
| Oggi h: 22:20 | Poco Nuvoloso | 17 | 13 | 77 | 1016 | 10 | S 11.1 | |
| Oggi h: 21:50 | Sereno | 17 | 13 | 77 | 1016 | 10 | S/SO 13 | |
| Oggi h: 21:20 | Poco Nuvoloso | 17 | 13 | 77 | 1016 | 10 | S/SO 11.1 | |
| Oggi h: 20:50 | Sereno | 17 | 13 | 77 | 1016 | 10 | SO 14.8 | |
| Oggi h: 20:20 | Poco Nuvoloso | 17 | 12 | 72 | 1016 | 10 | SO 18.5 | |
| Oggi h: 19:50 | Poco Nuvoloso | 17 | 12 | 72 | 1016 | 10 | O/SO 18.5 | |
| Oggi h: 18:20 | Poco Nuvoloso | 18 | 12 | 67 | 1016 | 10 | O/SO 27.8 | |
| Oggi h: 17:50 | Poco Nuvoloso | 18 | 11 | 63 | 1015 | 10 | SO 29.6 | |
| Oggi h: 17:20 | Poco Nuvoloso | 19 | 11 | 59 | 1015 | 10 | SO 27.8 | |
| Oggi h: 16:50 | Poco Nuvoloso | 19 | 11 | 59 | 1015 | 10 | O/SO 29.6 | |
| Oggi h: 16:20 | Poco Nuvoloso | 19 | 12 | 63 | 1015 | 10 | SO 27.8 | |
| Oggi h: 15:50 | Poco Nuvoloso | 19 | 12 | 63 | 1016 | 10 | SO 24 | |
| Oggi h: 15:20 | Nuvoloso | 19 | 11 | 59 | 1015 | 10 | O/SO 33.3 | |
| Oggi h: 14:50 | Nuvoloso | 19 | 12 | 63 | 1015 | 10 | SO 35.2 | |
| Oggi h: 14:20 | Nuvoloso | 19 | 12 | 63 | 1015 | 10 | SO 35.2 | |
| Oggi h: 13:50 | Nuvoloso | 19 | 12 | 63 | 1015 | 10 | O/SO 31.5 | |
| Oggi h: 13:20 | Nuvoloso | 19 | 12 | 63 | 1016 | 10 | SO 27.8 | |
| Oggi h: 12:50 | Nuvoloso | 19 | 11 | 59 | 1015 | 10 | O/SO 35.2 | |
| Oggi h: 12:20 | Nuvoloso | 20 | 12 | 59 | 1015 | 10 | O/SO 35.2 | |
| Oggi h: 11:50 | Nuvoloso | 19 | 13 | 68 | 1015 | 10 | SO 33.3 | |
| Oggi h: 11:20 | Nuvoloso | 20 | 12 | 59 | 1016 | 10 | SO 25.9 | |
| Oggi h: 10:50 | Nuvoloso | 18 | 12 | 67 | 1016 | 10 | SO 33.3 | |
| Oggi h: 10:20 | Nuvoloso | 19 | 12 | 63 | 1016 | 10 | SO 29.6 | |
| Oggi h: 09:50 | Nuvoloso | 19 | 12 | 63 | 1016 | 10 | SO 24 | |
| Oggi h: 09:20 | Poco Nuvoloso | 17 | 12 | 72 | 1016 | 10 | SO 27.8 | |
| Oggi h: 08:50 | Poco Nuvoloso | 16 | 12 | 77 | 1016 | 10 | S/SO 24 | |
| Oggi h: 08:20 | Poco Nuvoloso | 15 | 12 | 82 | 1016 | 10 | S/SO 20.3 | |
| Oggi h: 07:50 | Poco Nuvoloso | 14 | 11 | 82 | 1016 | 10 | S/SO 16.7 | |
| Oggi h: 07:20 | Poco Nuvoloso | 14 | 11 | 82 | 1016 | 10 | S/SO 16.7 | |
| Oggi h: 06:50 | Poco Nuvoloso | 14 | 11 | 82 | 1016 | 10 | S/SO 14.8 | |
| Oggi h: 06:20 | Sereno | 13 | 11 | 87 | 1016 | 10 | SO 18.5 | |
| Oggi h: 05:50 | Sereno | 12 | 10 | 87 | 1016 | 10 | S/SO 13 | |
| Oggi h: 05:20 | Sereno | 12 | 10 | 87 | 1016 | 10 | S 11.1 | |
| Oggi h: 04:50 | Sereno | 12 | 10 | 87 | 1016 | 10 | S 9.3 | |
| Oggi h: 04:20 | Sereno | 11 | 9 | 87 | 1016 | 10 | S/SO 11.1 | |
| Oggi h: 03:50 | Sereno | 11 | 9 | 87 | 1016 | 10 | SO 7.4 | |
| Oggi h: 03:20 | Sereno | 11 | 9 | 87 | 1016 | 10 | S 11.1 | |
| Oggi h: 02:50 | Sereno | 11 | 9 | 87 | 1016 | 10 | SO 11.1 | |
| Oggi h: 02:20 | Sereno | 12 | 9 | 81 | 1016 | 10 | SO 7.4 | |
| Oggi h: 01:50 | Sereno | 13 | 9 | 76 | 1016 | 10 | N 5.5 | |
| Oggi h: 01:20 | Sereno | 14 | 9 | 71 | 1016 | 10 | O/NO 11.1 | |
| Oggi h: 00:50 | Sereno | 13 | 9 | 76 | 1016 | 10 | O 11.1 | |
| Oggi h: 00:20 | Sereno | 14 | 9 | 71 | 1016 | 10 | O 14.8 | |
| Ieri h: 23:50 | Sereno | 14 | 9 | 71 | 1016 | 10 | O 14.8 | |



